Location: Unspecified
(0.0000°N, 0.0000°E)
Time: 16:07:39
(UTC+00:00)

COSMOS 2437 - Visible Passes

Search period start: 31 May 2023 00:00
Search period end: 10 June 2023 00:00
Orbit: 1479 x 1511 km, 82.5° (Epoch: 30 May)

Date Brightness Start Highest point End Pass type
(mag) Time Alt. Az. Time Alt. Az. Time Alt. Az.
31 May 9.1 04:32:31 10° SSE 04:40:42 43° E 04:48:52 10° NNE visible
01 Jun 10.1 03:46:03 10° SE 03:51:41 19° E 03:57:19 10° NE visible
01 Jun 10.1 18:14:59 10° NW 18:21:52 26° W 18:28:46 10° SSW visible
02 Jun 8.1 04:50:19 10° S 04:59:06 75° E 05:07:54 10° N visible
03 Jun 9.3 04:02:20 10° SSE 04:10:06 35° E 04:17:50 10° NNE visible
03 Jun 10.5 18:36:42 10° WNW 18:40:16 13° W 18:43:51 10° WSW visible
04 Jun 10.2 03:16:52 10° ESE 03:21:05 14° E 03:25:17 10° ENE visible
04 Jun 7.9 05:08:49 10° SSW 05:17:30 65° W 05:26:14 10° N visible
05 Jun 8.4 04:19:50 10° S 04:28:30 62° E 04:37:10 10° NNE visible
06 Jun 9.5 03:32:18 10° SSE 03:39:30 28° E 03:46:40 10° NE visible
06 Jun 8.4 05:28:03 10° SSW 05:35:55 37° W 05:43:50 10° NNW visible
07 Jun 10.4 02:49:17 10° E 02:50:29 10° E 02:51:41 10° E visible
07 Jun 7.8 04:38:06 10° S 04:46:55 79° W 04:55:44 10° N visible
08 Jun 8.6 03:49:27 10° SSE 03:57:55 50° E 04:06:20 10° NNE visible
09 Jun 9.7 03:02:28 10° SE 03:08:54 22° E 03:15:17 10° NE visible
09 Jun 8.2 04:57:02 10° SSW 05:05:19 46° W 05:13:38 10° NNW visible
